| time (UTC) | temp F | wind direction | speed MPH | gust MPH | rain 1hr in | rain 24hr in | rain mn in | humidity % | barometer mb |
| 20260504034404 | 79 | 61 | 3.0 | 8.0 | 0.00 | 2.49 | 0.00 | 74 | 1015.6 |
| 20260504033904 | 79 | 328 | 1.0 | 3.0 | 0.00 | 2.49 | 0.00 | 74 | 1015.5 |
| 20260504032903 | 79 | 327 | 1.0 | 3.0 | 0.00 | 2.49 | 0.00 | 73 | 1015.5 |
| 20260504032404 | 79 | 47 | 3.0 | 7.0 | 0.00 | 2.49 | 0.00 | 72 | 1015.4 |
| 20260504031905 | 79 | 5 | 3.0 | 8.0 | 0.00 | 2.49 | 0.00 | 72 | 1015.4 |
| 20260504030904 | 79 | 54 | 2.0 | 5.0 | 0.00 | 2.49 | 0.00 | 72 | 1015.5 |
| 20260504025904 | 79 | 343 | 0.0 | 1.0 | 0.00 | 2.49 | 0.00 | 72 | 1015.8 |
| 20260504025404 | 78 | 53 | 0.0 | 7.0 | 0.00 | 2.49 | 0.00 | 73 | 1015.9 |
| 20260504024904 | 78 | 54 | 4.0 | 10.0 | 0.00 | 2.49 | 0.00 | 73 | 1015.8 |
| 20260504023904 | 79 | 34 | 1.0 | 3.0 | 0.00 | 2.49 | 0.00 | 74 | 1015.7 |
| 20260504022904 | 78 | 59 | 3.0 | 6.0 | 0.00 | 2.49 | 0.00 | 74 | 1015.7 |
| 20260504022404 | 78 | 64 | 3.0 | 7.0 | 0.00 | 2.49 | 0.00 | 73 | 1015.7 |
| 20260504021904 | 78 | 68 | 2.0 | 9.0 | 0.00 | 2.49 | 0.00 | 73 | 1015.6 |
| 20260504021403 | 79 | 31 | 2.0 | 6.0 | 0.00 | 2.49 | 0.00 | 73 | 1015.4 |
| 20260504020404 | 79 | 42 | 3.0 | 5.0 | 0.00 | 2.49 | 0.00 | 71 | 1015.5 |
| 20260504015904 | 78 | 328 | 0.0 | 3.0 | 0.00 | 2.49 | 0.00 | 71 | 1015.6 |
| 20260504015403 | 78 | 335 | 0.0 | 3.0 | 0.00 | 2.49 | 0.00 | 71 | 1015.5 |
| 20260504014904 | 78 | 331 | 1.0 | 2.0 | 0.00 | 2.49 | 0.00 | 71 | 1015.4 |
| 20260504013903 | 77 | 7 | 1.0 | 3.0 | 0.00 | 2.49 | 0.00 | 71 | 1015.6 |
| 20260504012404 | 77 | 314 | 1.0 | 3.0 | 0.00 | 2.49 | 0.00 | 71 | 1015.3 |
| 20260504011904 | 77 | 38 | 2.0 | 3.0 | 0.00 | 2.49 | 0.00 | 71 | 1015.2 |
| 20260504011404 | 77 | 306 | 0.0 | 2.0 | 0.00 | 2.49 | 0.00 | 71 | 1015.2 |
| 20260504010904 | 77 | 307 | 1.0 | 5.0 | 0.00 | 2.49 | 0.00 | 72 | 1015.1 |
| 20260504010404 | 77 | 340 | 0.0 | 3.0 | 0.00 | 2.49 | 0.00 | 73 | 1015.0 |
| 20260504005904 | 76 | 64 | 2.0 | 3.0 | 0.00 | 2.49 | 0.00 | 73 | 1015.0 |
| 20260504005404 | 76 | 54 | 1.0 | 3.0 | 0.00 | 2.49 | 0.00 | 73 | 1015.0 |
| 20260504004904 | 76 | 40 | 1.0 | 3.0 | 0.00 | 2.49 | 0.00 | 74 | 1015.0 |
| 20260504004404 | 76 | 323 | 1.0 | 2.0 | 0.00 | 2.49 | 0.00 | 75 | 1014.9 |
| 20260504003904 | 76 | 349 | 1.0 | 3.0 | 0.00 | 2.49 | 0.00 | 75 | 1015.1 |
| 20260504003404 | 76 | 60 | 2.0 | 3.0 | 0.00 | 2.49 | 0.00 | 75 | 1015.1 |
| 20260504002404 | 75 | 49 | 0.0 | 2.0 | 0.00 | 2.49 | 0.00 | 76 | 1015.1 |
| 20260504001904 | 75 | 55 | 2.0 | 3.0 | 0.00 | 2.49 | 0.00 | 77 | 1015.0 |
| 20260504001405 | 75 | 51 | 2.0 | 5.0 | 0.00 | 2.49 | 0.00 | 77 | 1014.9 |
| 20260504000904 | 75 | 19 | 0.0 | 5.0 | 0.00 | 2.49 | 0.00 | 78 | 1014.8 |
| 20260504000404 | 75 | 350 | 2.0 | 3.0 | 0.00 | 2.49 | 0.00 | 77 | 1014.9 |
| 20260503235404 | 75 | 312 | 0.0 | 2.0 | 0.00 | 2.49 | 0.00 | 77 | 1014.6 |
| 20260503234404 | 74 | 281 | 0.0 | 0.0 | 0.00 | 2.49 | 0.00 | 78 | 1014.5 |
| 20260503233404 | 74 | 8 | 0.0 | 3.0 | 0.00 | 2.49 | 0.00 | 81 | 1014.3 |
| 20260503232904 | 74 | 50 | 1.0 | 2.0 | 0.00 | 2.49 | 0.00 | 82 | 1014.1 |
| 20260503232404 | 74 | 347 | 0.0 | 0.0 | 0.00 | 2.49 | 0.00 | 82 | 1014.3 |
| 20260503231905 | 74 | 359 | 0.0 | 0.0 | 0.00 | 2.49 | 0.00 | 83 | 1014.2 |
| 20260503231404 | 74 | 27 | 1.0 | 3.0 | 0.00 | 2.49 | 0.00 | 82 | 1014.1 |
| 20260503230904 | 74 | 21 | 0.0 | 3.0 | 0.00 | 2.49 | 0.00 | 81 | 1013.9 |
| 20260503230404 | 74 | 1 | 0.0 | 0.0 | 0.00 | 2.49 | 0.00 | 81 | 1014.0 |
| 20260503225904 | 74 | 5 | 0.0 | 3.0 | 0.00 | 2.49 | 0.00 | 80 | 1013.9 |
| 20260503225404 | 74 | 318 | 0.0 | 1.0 | 0.00 | 2.49 | 0.00 | 79 | 1013.7 |
| 20260503224404 | 74 | 323 | 0.0 | 1.0 | 0.00 | 2.49 | 0.00 | 80 | 1013.5 |
| 20260503223904 | 74 | 325 | 0.0 | 1.0 | 0.00 | 2.49 | 0.00 | 80 | 1013.4 |
| 20260503223404 | 74 | 327 | 0.0 | 2.0 | 0.00 | 2.49 | 0.00 | 81 | 1013.4 |
| 20260503222904 | 74 | 329 | 0.0 | 1.0 | 0.00 | 2.49 | 0.00 | 81 | 1013.3 |
| 20260503222404 | 74 | 334 | 0.0 | 1.0 | 0.00 | 2.49 | 0.00 | 82 | 1013.2 |
| 20260503221404 | 74 | 333 | 0.0 | 1.0 | 0.00 | 2.49 | 0.00 | 83 | 1013.1 |
| 20260503220904 | 74 | 34 | 0.0 | 3.0 | 0.00 | 2.49 | 0.00 | 84 | 1013.0 |
| 20260503220404 | 74 | 23 | 0.0 | 3.0 | 0.00 | 2.49 | 0.00 | 85 | 1012.7 |
| 20260503215905 | 74 | 339 | 0.0 | 0.0 | 0.00 | 2.49 | 0.00 | 84 | 1012.6 |
| 20260503215404 | 74 | 340 | 0.0 | 0.0 | 0.00 | 2.49 | 0.00 | 84 | 1012.5 |
| 20260503214904 | 74 | 340 | 0.0 | 0.0 | 0.00 | 2.49 | 0.00 | 83 | 1012.5 |
| 20260503214404 | 74 | 341 | 0.0 | 0.0 | 0.00 | 2.49 | 0.00 | 83 | 1012.4 |
| 20260503213903 | 74 | 341 | 0.0 | 0.0 | 0.00 | 2.49 | 0.00 | 83 | 1012.4 |
| 20260503213404 | 74 | 341 | 0.0 | 2.0 | 0.00 | 2.49 | 0.00 | 83 | 1012.2 |
| 20260503212904 | 74 | 27 | 1.0 | 3.0 | 0.00 | 2.49 | 0.00 | 85 | 1012.0 |
| 20260503212404 | 74 | 0 | 0.0 | 3.0 | 0.00 | 2.49 | 0.00 | 85 | 1011.9 |
| 20260503211904 | 74 | 48 | 1.0 | 3.0 | 0.00 | 2.49 | 0.00 | 86 | 1011.8 |
| 20260503211404 | 74 | 58 | 1.0 | 3.0 | 0.00 | 2.49 | 0.00 | 87 | 1011.8 |
| 20260503210904 | 73 | 312 | 0.0 | 1.0 | 0.00 | 2.49 | 0.00 | 88 | 1011.8 |
| 20260503210404 | 73 | 331 | 0.0 | 2.0 | 0.00 | 2.49 | 0.00 | 88 | 1011.6 |
| 20260503205904 | 73 | 352 | 1.0 | 3.0 | 0.00 | 2.49 | 0.00 | 88 | 1011.6 |
| 20260503205404 | 73 | 329 | 0.0 | 2.0 | 0.00 | 2.49 | 0.00 | 89 | 1011.5 |
| 20260503204905 | 73 | 337 | 1.0 | 1.0 | 0.00 | 2.49 | 0.00 | 89 | 1011.4 |
| 20260503204404 | 73 | 345 | 0.0 | 1.0 | 0.00 | 2.49 | 0.00 | 89 | 1011.4 |
| 20260503203904 | 73 | 0 | 1.0 | 3.0 | 0.00 | 2.49 | 0.00 | 89 | 1011.4 |
| 20260503203403 | 73 | 7 | 1.0 | 3.0 | 0.00 | 2.49 | 0.00 | 89 | 1011.3 |
| 20260503202404 | 74 | 347 | 1.0 | 3.0 | 0.00 | 2.49 | 0.00 | 89 | 1011.4 |
| 20260503201904 | 74 | 306 | 0.0 | 1.0 | 0.00 | 2.49 | 0.00 | 89 | 1011.3 |
| 20260503201404 | 74 | 306 | 0.0 | 0.0 | 0.00 | 2.49 | 0.00 | 89 | 1011.2 |
| 20260503200904 | 74 | 306 | 0.0 | 0.0 | 0.00 | 2.49 | 0.00 | 90 | 1011.1 |
| 20260503200404 | 74 | 306 | 0.0 | 0.0 | 0.00 | 2.49 | 0.00 | 90 | 1011.3 |
| 20260503195903 | 73 | 306 | 0.0 | 0.0 | 0.00 | 2.49 | 0.00 | 90 | 1011.3 |
| 20260503195404 | 73 | 306 | 0.0 | 0.0 | 0.00 | 2.49 | 0.00 | 89 | 1011.3 |
| 20260503194904 | 73 | 306 | 0.0 | 0.0 | 0.00 | 2.49 | 0.00 | 90 | 1011.4 |
| 20260503194404 | 73 | 306 | 0.0 | 0.0 | 0.00 | 2.49 | 0.00 | 90 | 1011.2 |
| 20260503193904 | 73 | 306 | 0.0 | 0.0 | 0.00 | 2.49 | 0.00 | 90 | 1011.5 |
| 20260503192904 | 73 | 306 | 0.0 | 0.0 | 0.00 | 2.49 | 0.00 | 91 | 1011.7 |
| 20260503192404 | 73 | 306 | 0.0 | 0.0 | 0.00 | 2.49 | 0.00 | 91 | 1011.7 |
| 20260503191904 | 73 | 306 | 0.0 | 1.0 | 0.00 | 2.49 | 0.00 | 91 | 1011.7 |
| 20260503191403 | 73 | 306 | 0.0 | 1.0 | 0.00 | 2.49 | 0.00 | 91 | 1011.7 |
| 20260503190404 | 73 | 306 | 0.0 | 0.0 | 0.00 | 2.49 | 0.00 | 91 | 1011.7 |
| 20260503185404 | 73 | 314 | 1.0 | 3.0 | 0.00 | 2.49 | 0.00 | 91 | 1011.7 |
| 20260503184903 | 73 | 304 | 1.0 | 1.0 | 0.00 | 2.49 | 0.00 | 91 | 1011.7 |
| 20260503184404 | 73 | 303 | 1.0 | 1.0 | 0.00 | 2.49 | 0.00 | 91 | 1011.7 |
| 20260503183904 | 73 | 303 | 0.0 | 0.0 | 0.00 | 2.49 | 0.00 | 91 | 1011.7 |
| 20260503183404 | 73 | 303 | 0.0 | 1.0 | 0.00 | 2.49 | 0.00 | 91 | 1011.9 |
| 20260503182904 | 73 | 268 | 0.0 | 2.0 | 0.00 | 2.49 | 0.00 | 91 | 1011.9 |
| 20260503182404 | 73 | 340 | 1.0 | 3.0 | 0.00 | 2.49 | 0.00 | 91 | 1011.9 |
| 20260503181904 | 73 | 351 | 0.0 | 0.0 | 0.00 | 2.49 | 0.00 | 91 | 1011.9 |
| 20260503181403 | 73 | 351 | 0.0 | 0.0 | 0.00 | 2.49 | 0.00 | 91 | 1012.1 |
| 20260503180904 | 73 | 352 | 0.0 | 1.0 | 0.00 | 2.49 | 0.00 | 91 | 1012.1 |
| 20260503180403 | 73 | 352 | 1.0 | 1.0 | 0.00 | 2.49 | 0.00 | 91 | 1012.2 |
| 20260503175904 | 73 | 352 | 1.0 | 1.0 | 0.00 | 2.49 | 0.00 | 91 | 1012.3 |
| 20260503175404 | 73 | 354 | 1.0 | 2.0 | 0.00 | 2.49 | 0.00 | 92 | 1012.4 |
| 20260503174903 | 73 | 347 | 0.0 | 0.0 | 0.00 | 2.49 | 0.00 | 92 | 1012.4 |
| 20260503174404 | 73 | 347 | 0.0 | 0.0 | 0.00 | 2.49 | 0.00 | 92 | 1012.6 |
| 20260503173404 | 73 | 24 | 1.0 | 2.0 | 0.00 | 2.49 | 0.00 | 92 | 1012.7 |
| 20260503172904 | 73 | 38 | 2.0 | 3.0 | 0.00 | 2.49 | 0.00 | 92 | 1012.8 |
| 20260503171904 | 74 | 346 | 1.0 | 3.0 | 0.00 | 2.49 | 0.00 | 92 | 1012.9 |
| 20260503171405 | 74 | 346 | 2.0 | 2.0 | 0.00 | 2.49 | 0.00 | 92 | 1013.0 |
| 20260503170404 | 74 | 320 | 1.0 | 2.0 | 0.00 | 2.49 | 0.00 | 92 | 1013.1 |
| 20260503150904 | 75 | 52 | 2.0 | 3.0 | 0.09 | 2.45 | 2.45 | 94 | 1013.3 |
| 20260503150404 | 75 | 9 | 0.0 | 2.0 | 0.10 | 2.44 | 2.44 | 94 | 1013.3 |
| 20260503131404 | 74 | 341 | 1.0 | 2.0 | 0.09 | 2.17 | 2.17 | 97 | 1013.5 |
| 20260503130904 | 74 | 343 | 0.0 | 1.0 | 0.08 | 2.16 | 2.16 | 97 | 1013.4 |
| 20260503130404 | 74 | 345 | 0.0 | 1.0 | 0.08 | 2.16 | 2.16 | 97 | 1013.3 |
| 20260503110404 | 74 | 347 | 1.0 | 2.0 | 0.10 | 2.02 | 2.02 | 96 | 1011.2 |
| 20260503090404 | 75 | 310 | 0.0 | 1.0 | 0.07 | 1.74 | 1.74 | 92 | 1009.8 |
| 20260503081404 | 75 | 330 | 0.0 | 0.0 | 0.06 | 1.68 | 1.68 | 94 | 1009.2 |
| 20260503080904 | 75 | 23 | 0.0 | 1.0 | 0.14 | 1.68 | 1.68 | 94 | 1009.3 |
| 20260503080404 | 75 | 54 | 1.0 | 5.0 | 0.69 | 1.67 | 1.67 | 94 | 1009.4 |
| 20260503072904 | 74 | 55 | 1.0 | 3.0 | 1.45 | 1.64 | 1.64 | 95 | 1009.4 |
| 20260503072404 | 74 | 300 | 0.0 | 1.0 | 1.45 | 1.64 | 1.64 | 95 | 1009.8 |
| 20260503071904 | 74 | 301 | 0.0 | 3.0 | 1.45 | 1.63 | 1.63 | 93 | 1009.9 |
| 20260503070904 | 75 | 346 | 0.0 | 5.0 | 1.36 | 1.54 | 1.54 | 93 | 1009.7 |
| 20260503054904 | 81 | 295 | 1.0 | 3.0 | 0.00 | 0.00 | 0.00 | 82 | 1009.7 |
| 20260503053904 | 82 | 38 | 6.0 | 12.0 | 0.00 | 0.00 | 0.00 | 81 | 1009.2 |
| 20260503053404 | 85 | 25 | 5.0 | 9.0 | 0.00 | 0.00 | 0.00 | 81 | 1009.1 |
| 20260503052904 | 86 | 17 | 1.0 | 3.0 | 0.00 | 0.00 | 0.00 | 80 | 1009.2 |
| 20260503052404 | 86 | 347 | 1.0 | 2.0 | 0.00 | 0.00 | 0.00 | 79 | 1009.4 |
| 20260503051904 | 86 | 245 | 0.0 | 2.0 | 0.00 | 0.00 | 0.00 | 78 | 1009.7 |
| 20260503051404 | 86 | 260 | 0.0 | 3.0 | 0.00 | 0.00 | 0.00 | 79 | 1009.8 |
| 20260503050904 | 86 | 267 | 0.0 | 3.0 | 0.00 | 0.00 | 0.00 | 78 | 1010.0 |
| 20260503050403 | 87 | 260 | 1.0 | 3.0 | 0.00 | 0.00 | 0.00 | 77 | 1010.0 |
| 20260503045904 | 87 | 260 | 1.0 | 2.0 | 0.00 | 0.00 | 0.00 | 78 | 1010.1 |
| 20260503045404 | 87 | 265 | 1.0 | 2.0 | 0.00 | 0.00 | 0.00 | 77 | 1010.2 |
| 20260503044904 | 87 | 253 | 0.0 | 2.0 | 0.00 | 0.00 | 0.00 | 77 | 1010.3 |
| 20260503044404 | 87 | 258 | 1.0 | 2.0 | 0.00 | 0.00 | 0.00 | 77 | 1010.3 |
| 20260503043904 | 87 | 308 | 0.0 | 3.0 | 0.00 | 0.00 | 0.00 | 77 | 1010.3 |
| 20260503042904 | 86 | 253 | 2.0 | 3.0 | 0.00 | 0.00 | 0.00 | 78 | 1010.5 |
| 20260503042404 | 87 | 279 | 0.0 | 3.0 | 0.00 | 0.00 | 0.00 | 79 | 1010.5 |
| 20260503041904 | 86 | 303 | 1.0 | 7.0 | 0.00 | 0.00 | 0.00 | 80 | 1010.8 |
| 20260503041404 | 86 | 336 | 1.0 | 5.0 | 0.00 | 0.00 | 0.00 | 79 | 1010.8 |
| 20260503040404 | 86 | 346 | 2.0 | 5.0 | 0.00 | 0.00 | 0.00 | 80 | 1010.9 |
| 20260503035903 | 85 | 340 | 2.0 | 5.0 | 0.00 | 0.00 | 0.00 | 80 | 1010.8 |
| 20260503035404 | 85 | 337 | 1.0 | 5.0 | 0.00 | 0.00 | 0.00 | 81 | 1010.8 |
| 20260503034904 | 85 | 334 | 0.0 | 3.0 | 0.00 | 0.00 | 0.00 | 81 | 1010.8 |